User: anonymous   Login
Location: Elstree
(51.6403°N, 0.2969°W)
Time: 20:37:56
(UTC+00:00)
Language:

HJ-1C - Orbit

View from above orbital plane
View from above orbital plane
View from above satellite
View from above satellite

Ground track
Ground track

The orbit data is extracted from the following two-line orbital elements,

1 38997U 12064A   21136.93062796  .00003930  00000-0  87268-4 0  9994
2 38997  97.1201 166.5321 0007561 223.7263 255.1784 15.44259397477218
Epoch (UTC): 16 May 2021 22:20:06
Eccentricity: 0.0007561
inclination: 97.1201°
perigee height: 428 km
apogee height: 439 km
right ascension of ascending node: 166.5321°
argument of perigee: 223.7263°
revolutions per day: 15.44259397
mean anomaly at epoch: 255.1784°
orbit number at epoch: 47721

The dashed part of the orbit path shows where the satellite is in the earth's shadow,  

DLR